Content
SEND FEEDBACK

Daily
Averages
Monthly
Summary
United States of America

KANEOHE BAY, HAWAII


Home > North America > United States > Hawaii
Elevation: 300 feet     Latitude: 21 25N     Longitude: 157 49W

WEATHER
 
SELECT A DAY
Number of Records: 179,903;   Date Range: 1/1/95 - 9/30/14
 
SHARE

PRINT THIS DATA

[ ← Previous Day ]
WEATHER ALMANAC - JANUARY 31, 2013
[ Next Day → ]
[ °C ]   °F
Weather ElementAverageHighLow
Temperature71.2 °F80.6 °F (1:57 pm) (8:13 am)
Dewpoint62.5 °F66 °F (1:57 am) (7:00 pm)
Humidity73.6 %88 % (3:57 am)61 % (1:57 pm)
Barometer30.08 in30.13 in (9:44 pm)30.04 in (1:57 am)
Wind Speed9.6 mph12.7 mph (1:57 pm)
Wind Gust20.7 mph (10:57 pm)
Weather ElementAverage
Visibility10 mi
Wind DirectionNE (48.3 °)

Weather ElementTotal
Precipitation---
Heating Degree Days24.7 (Base 65)
Averaged from 30 records on January 31, 2013
WEATHER CONDITIONS BREAKOUT
WIND DIRECTION BREAKOUT
WEATHER BY HOUR - JANUARY 31, 2013
[ °C ]   °F
Local TimeTemperatureDewpointHumidityBarometerVisibilityWind DirectionWind SpeedGust SpeedPrecipitationEventsConditions
1:57 AM71.6 °F66.0 °F82 %30.04 in10.0 miNE (40°)9.2 mphClear
2:57 AM69.8 °F64.9 °F84 %30.04 in10.0 miNE (50°)8.1 mph0.00 inOvercast
3:57 AM69.8 °F66.0 °F88 %30.04 in10.0 miNE (50°)6.9 mphOvercast
4:57 AM69.8 °F64.9 °F84 %30.04 in10.0 miENE (60°)6.9 mphScattered Clouds
5:16 AM71.6 °F64.4 °F78 %30.05 in10.0 miENE (70°)8.1 mphMostly Cloudy
5:38 AM71.6 °F64.4 °F78 %30.05 in10.0 miENE (60°)6.9 mphScattered Clouds
5:57 AM71.6 °F64.9 °F79 %30.04 in10.0 miNE (50°)5.8 mphScattered Clouds
6:57 AM71.6 °F64.9 °F79 %30.06 in10.0 miENE (60°)6.9 mphScattered Clouds
7:29 AM73.4 °F64.4 °F73 %30.08 in10.0 miNE (50°)8.1 mphMostly Cloudy
7:57 AM73.4 °F64.0 °F72 %30.08 in10.0 miENE (60°)8.1 mphOvercast
8:13 AM0.0 °F0.0 °F30.10 in10.0 miNE (50°)6.9 mphScattered Clouds
8:57 AM71.6 °F64.9 °F79 %30.09 in10.0 miNE (50°)5.8 mphOvercast
9:57 AM73.4 °F64.9 °F75 %30.11 in10.0 miNNE (30°)9.2 mphMostly Cloudy
10:57 AM77.0 °F66.0 °F69 %30.11 in10.0 miNE (40°)10.4 mphScattered Clouds
11:57 AM78.8 °F66.0 °F65 %30.10 in10.0 miNE (40°)11.5 mphMostly Cloudy
12:57 PM78.8 °F64.9 °F62 %30.07 in10.0 miNE (40°)10.4 mph18.4 mphMostly Cloudy
1:57 PM80.6 °F66.0 °F61 %30.06 in10.0 miNNE (30°)12.7 mph17.3 mphMostly Cloudy
2:57 PM77.0 °F66.0 °F69 %30.04 in10.0 miNE (40°)12.7 mphPartly Cloudy
3:57 PM75.9 °F64.9 °F69 %30.05 in10.0 miNE (40°)10.4 mphMostly Cloudy
4:57 PM76.5 °F64.9 °F67 %30.06 in10.0 miNE (50°)10.4 mph17.3 mphOvercast
5:57 PM77.0 °F64.9 °F66 %30.07 in10.0 miNE (40°)11.5 mph18.4 mphOvercast
6:57 PM73.4 °F64.0 °F72 %30.08 in10.0 miNE (50°)9.2 mph17.3 mphOvercast
7:57 PM73.4 °F64.0 °F72 %30.09 in10.0 miNE (50°)10.4 mphClear
8:57 PM74.1 °F64.0 °F71 %30.11 in10.0 miNE (50°)10.4 mphMostly Cloudy
9:10 PM73.4 °F64.4 °F73 %30.12 in10.0 miNE (50°)11.5 mph18.4 mphOvercast
9:44 PM73.4 °F64.4 °F73 %30.13 in10.0 miNE (50°)11.5 mphOvercast
9:57 PM73.4 °F64.0 °F72 %30.12 in10.0 miNE (50°)12.7 mph18.4 mphOvercast
10:57 PM71.6 °F63.0 °F74 %30.11 in10.0 miNE (50°)11.5 mph20.7 mph0.00 inRainLight Rain
11:20 PM71.6 °F62.6 °F73 %30.12 in10.0 miNE (50°)12.7 mph20.7 mph0.00 inOvercast
11:57 PM71.6 °F63.0 °F74 %30.10 in10.0 miNE (50°)11.5 mph20.7 mph0.00 inOvercast
Hourly data recorded from PHNG, located miles away from Kaneohe Bay, Hawaii







STORIES FROM OUR PARTNERS